KINEIS-3B

Last updated on Wed Sep 09 2026 00:02:55 GMT+0000 (Coordinated Universal Time)

1 61224U 24172E 26251.47169109 .00001278 00000+0 21008-3 0 9995 2 61224 98.0399 340.5806 0002752 136.6978 223.4446 14.72310038105603
UTC large
Height (km)
Speed (km/s)
/
Latitude / Longitude
Inclination (degrees)
Orbital Period (minutes)
Azimuth
Elevation
Range (km)
Doppler Factor

Next 0 passes for location: London (51.5072 / 0.1276)

No passes found over London.
KINEIS-3B